Location: ???? ?????
(30.0052°N, 31.2891°E)
Time: 07:04:13
(UTC+00:00)

SEDSat Delta rocket - Pass Details

Date: 10 October 2022
Orbit: 532 x 995 km, 31.4° (Epoch: 04 December)

Event Time Altitude Azimuth Distance (km) Brightness Sun altitude
Rises 17:58:34 0° 267° (W) 3,280 7.8 -32.9°
Reaches altitude 10° 18:02:04 10° 244° (WSW) 2,448 6.6 -33.6°
Maximum altitude 18:05:18 15° 211° (SSW) 2,186 6.0 -34.3°
Enters shadow 18:05:33 15° 208° (SSW) 2,194 5.9 -34.3°
